{"data":{"norad_id":67141,"intl_designator":"2025-301J","name":"KUIPER-00187","alt_names":[],"object_type":"PAYLOAD","status":"ACTIVE","operator":null,"country":"US","launch_date":"2025-12-16","launch_site_code":"AFETR","launch_vehicle":null,"mission":null,"orbit_class":"UNKNOWN","rcs_meters":null,"size_class":null,"mass_kg":null,"dimensions":null,"purposes":[],"wikipedia_slug":null,"has_3d_model":false,"image_url":null,"decayed_at":null,"tle_current":{"epoch":"2026-05-25T03:41:58.261920Z","epoch_age_seconds":61812,"freshness":"FRESH","line1":"1 67141U 25301J   26145.15414655  .00000732  00000+0  12497-3 0  9996","line2":"2 67141  51.9023 102.5199 0000734  88.2574 271.8472 14.79930158 24842","mean_motion":14.79930158,"eccentricity":7.34e-5,"inclination_deg":51.9023,"raan_deg":102.5199,"arg_perigee_deg":88.2574,"mean_anomaly_deg":271.8472,"bstar":0.00012497,"rev_number":2484,"period_min":97.301889026036,"perigee_km":629.03023684961,"apogee_km":630.05896450859,"semimajor_km":7007.6816006791,"source":"CELESTRAK","updated_at":"2026-05-25T13:38:06.750340Z"}}}